Location: Contre
(49.7477°N, 2.0963°E)
Time: 00:59:41
(UTC+00:00)

Cosmos 1892 Rocket - Pass Details

Date: 03 February 2023
Orbit: 605 x 632 km, 82.5° (Epoch: 21 March)

Event Time Altitude Azimuth Distance (km) Brightness Sun altitude
Rises 18:42:09 0° 190° (S) 2,898 7.2 -18.3°
Reaches altitude 10° 18:44:22 10° 190° (S) 1,992 6.3 -18.7°
Maximum altitude 18:48:47 85° 279° (W) 630 3.5 -19.4°
Drops below altitude 10° 18:53:13 10° 9° (N) 1,991 6.0 -20.1°
Sets 18:55:26 0° 10° (N) 2,897 6.9 -20.5°
